Location: Étavigny
(49.1201°N, 2.9800°E)
Time: 10:42:13
(UTC+00:00)

Cosmos 1140 Rocket - Pass Details

Date: 28 January 2023
Orbit: 744 x 766 km, 74.1° (Epoch: 23 March)

Event Time Altitude Azimuth Distance (km) Brightness Sun altitude
Rises 18:04:19 0° 187° (S) 3,203 7.0 -14.1°
Reaches altitude 10° 18:06:43 10° 183° (S) 2,279 6.1 -14.5°
Maximum altitude 18:11:44 55° 107° (ESE) 906 3.5 -15.3°
Enters shadow 18:16:10 13° 32° (NNE) 2,057 5.3 -16.0°
